Location: Unnamed
(23.5608°S, 46.6833°W)
Time: 05:37:10
(UTC-03:00)

NOAA 15 - Visible Passes

Search period start: 24 July 2024 00:00
Search period end: 03 August 2024 00:00
Orbit: 796 x 810 km, 98.6° (Epoch: 23 July)

Date Brightness Start Highest point End Pass type
(mag) Time Alt. Az. Time Alt. Az. Time Alt. Az.
24 Jul 7.2 06:02:23 10° ENE 06:05:40 17° ESE 06:08:58 10° SSE visible
24 Jul 6.2 18:28:33 14° E 18:29:23 14° E 18:32:04 10° NE visible
24 Jul 5.5 20:09:33 45° W 20:09:33 45° W 20:14:13 10° NW visible
25 Jul 4.5 19:43:24 86° SSW 19:43:30 87° WSW 19:48:49 10° NNW visible
26 Jul 4.8 19:17:15 47° E 19:17:46 48° E 19:22:51 10° N visible
26 Jul 7.4 20:58:14 13° W 20:58:14 13° W 20:59:38 10° W visible
27 Jul 5.6 18:51:06 24° E 18:51:57 25° E 18:56:15 10° NNE visible
27 Jul 6.5 20:32:05 26° W 20:32:05 26° W 20:35:50 10° NW visible
28 Jul 7.3 05:59:22 10° ENE 06:02:24 16° ESE 06:05:25 10° SE visible
28 Jul 6.3 18:24:57 12° E 18:26:04 13° E 18:28:22 10° ENE visible
28 Jul 5.3 20:05:56 49° WSW 20:05:56 49° WSW 20:10:59 10° NNW visible
29 Jul 4.5 19:39:47 76° SSE 19:40:12 86° E 19:45:31 10° NNW visible
30 Jul 4.9 19:13:37 41° ESE 19:14:26 44° E 19:19:29 10° N visible
30 Jul 7.3 20:54:37 15° W 20:54:37 15° W 20:56:41 10° WNW visible
31 Jul 5.7 18:47:27 22° ESE 18:48:37 23° E 18:52:46 10° NNE visible
31 Jul 6.4 20:28:27 28° WSW 20:28:27 28° WSW 20:32:41 10° NW visible
01 Aug 7.4 05:56:22 10° E 05:59:06 14° ESE 06:01:51 10° SE visible
01 Aug 6.3 18:21:17 11° E 18:22:43 12° E 18:24:31 10° ENE visible
01 Aug 5.2 20:02:16 53° WSW 20:02:35 54° WSW 20:07:44 10° NNW visible
02 Aug 4.4 19:36:07 65° SE 19:36:53 80° ENE 19:42:11 10° N visible
